[[{"header":{"parameterUnit":"m.s-1","parameterCategory":2,"la1":30.2991,"la2":30.254,"lo1":-89.0895,"lo2":-89.0444,"dy":0.0017,"dx":0.0017,"nx":28,"ny":28,"refTime":"2024-05-31T03:00:00:Z","depth":"0","parameterNumber":2,"parameterNumberName":"U-component_of_CURRENTS"},"data":[0,0,0,0,0,0,0,0,0,0,0,0,0,0,0,0,0,0,0,0,0,0,0,0,0,0,0,0,0,0,0,0,0,0,0,0,0,0,0,0,0,0,0,0,0,0,0,0,0,0,0,0,0,0,0,0,0,0,0.2205,0.2205,0,0.22,0.22,0.2199,0.2182,0.2182,0.2182,0.2182,0.2182,0.2183,0.2183,0,0,0,0,0,0,0,0,0,0,0,0,0,0.2162,0.2162,0.2205,0.2205,0.2205,0.22,0.22,0.2199,0.2182,0.2182,0.2182,0.2181,0.2182,0.2183,0.2183,0,0,0,0,0,0,0,0,0,0,0,0,0,0.2169,0.2163,0.2205,0.2198,0.2197,0.22,0.22,0.2199,0.2182,0.2182,0.2182,0.2181,0.2182,0.2183,0.2183,0.219,0,0,0.2184,0.2184,0,0,0,0,0,0,0,0,0.2169,0.217,0.2199,0.2198,0.2198,0.2193,0.2185,0.2197,0.2182,0.2186,0.2182,0.2181,0.2188,0.2188,0.2184,0.219,0.219,0.2184,0.2184,0.2184,0.2184,0,0,0,0,0,0,0,0.2168,0.217,0.2201,0.2199,0.2198,0.2181,0.2182,0.2187,0.2187,0.2185,0.2185,0.2187,0.2188,0.2184,0.2184,0.2191,0.2184,0.2184,0.2184,0.2184,0.2229,0.223,0,0,0,0,0,0,0.2176,0.217,0.2201,0.2201,0.2184,0.2183,0.2184,0.2193,0.2187,0.2186,0.2188,0.2187,0.2184,0.2184,0.2184,0.2213,0.2184,0.2184,0.2185,0.2228,0.223,0.2231,0,0,0,0,0,0,0.2175,0.2179,0.2201,0.2186,0.2188,0.2184,0.2195,0.2193,0.2193,0.2189,0.2188,0.219,0.2184,0.2184,0.2194,0.2212,0.2184,0.2185,0.2227,0.2229,0.223,0.2258,0,0,0,0,0,0,0.2174,0.2179,0.2185,0.2187,0.219,0.2208,0.2195,0.2193,0.2196,0.2195,0.2191,0.219,0.2183,0.2193,0.2194,0.2212,0.2185,0.2226,0.2228,0.223,0.2256,0.226,0.2264,0,0,0,0,0,0.2172,0.2181,0.2185,0.2189,0.22,0.2209,0.2209,0.2203,0.2197,0.22,0.2198,0.219,0.2206,0.2194,0.2195,0.2214,0.2225,0.2227,0.223,0.2254,0.226,0.2264,0,0,0,0,0,0,0.2156,0.2181,0.2185,0.2199,0.2207,0.2207,0.221,0.2207,0.2207,0.2207,0.2199,0.2199,0.2217,0.2213,0.22,0.2234,0.2217,0.2219,0.2235,0.224,0.2244,0.2239,0.2185,0,0,0,0,0,0.216,0.2178,0.2193,0.2202,0.2211,0.2213,0.2215,0.2214,0.2216,0.2215,0.2213,0.2216,0.2227,0.223,0.2237,0.2252,0.2253,0.2266,0.2271,0.2274,0.2272,0.2298,0.2304,0.2238,0.2238,0.2238,0,0,0.2153,0.2171,0.2178,0.2201,0.2208,0.2217,0.2213,0.2223,0.2227,0.2217,0.2222,0.2231,0.2236,0.2254,0.2262,0.2251,0.2295,0.2277,0.228,0.2275,0.2301,0.2307,0.2313,0.224,0.224,0.2239,0,0,0.2152,0.2171,0.2186,0.2199,0.2219,0.2222,0.2228,0.2236,0.2239,0.2249,0.2249,0.2268,0.2273,0.2285,0.2291,0.2323,0.2318,0.2329,0.2342,0.2368,0.2374,0.2379,0.239,0.2395,0.2329,0.2329,0.2329,0,0.2141,0.2164,0.2189,0.2206,0.2215,0.2226,0.2237,0.2243,0.225,0.2262,0.2254,0.2285,0.2289,0.232,0.233,0.2333,0.234,0.2321,0.2373,0.2378,0.2382,0.2393,0.2399,0.233,0.233,0.233,0.233,0,0.215,0.2168,0.2178,0.2206,0.222,0.2231,0.2251,0.2265,0.2271,0.2278,0.2311,0.232,0.2339,0.235,0.2346,0.2386,0.2379,0.2378,0.2358,0.2391,0.24,0.2405,0.2333,0.2332,0.2331,0.2331,0,0,0.2122,0.2174,0.2175,0.2185,0.2222,0.2228,0.2257,0.2282,0.2296,0.2314,0.2337,0.2365,0.2376,0.2384,0.2393,0.2413,0.2451,0.2406,0.2407,0.2413,0.25,0.2493,0.2498,0.2459,0.2461,0.2461,0.2494,0,0.2116,0.2143,0.2175,0.2187,0.2202,0.2235,0.2252,0.2281,0.2307,0.2331,0.2364,0.2387,0.2387,0.2401,0.2425,0.2449,0.2466,0.2441,0.2471,0.2472,0.2458,0.2505,0.2445,0.2469,0.2499,0.25,0.2501,0,0.2108,0.2129,0.2149,0.2181,0.219,0.2199,0.2239,0.2258,0.2311,0.2337,0.2381,0.2404,0.2449,0.2438,0.2495,0.2479,0.2489,0.2501,0.2503,0.2489,0.2476,0.2443,0.2478,0.2433,0.2509,0.2508,0.2508,0,0.2068,0.2104,0.2117,0.2128,0.2171,0.2186,0.2204,0.2258,0.2284,0.2344,0.2372,0.2429,0.2457,0.249,0.2524,0.2513,0.2577,0.2565,0.2565,0.2564,0.2515,0.2508,0.2505,0.2596,0.2596,0.2596,0.2596,0,0.205,0.2051,0.2096,0.21,0.2107,0.215,0.2171,0.2207,0.2268,0.2298,0.2364,0.2409,0.2471,0.2519,0.2539,0.2577,0.2593,0.2576,0.258,0.2523,0.2517,0.2475,0.2445,0.2597,0.2597,0.2597,0.2597,0,0.2003,0.2035,0.2041,0.208,0.2091,0.2092,0.2145,0.2162,0.2227,0.2275,0.2297,0.2403,0.2479,0.2532,0.2594,0.2594,0.2563,0.2631,0.2556,0.2551,0.2505,0.2478,0.2357,0.2287,0.264,0.264,0.264,0,0.198,0.1984,0.2013,0.2014,0.2029,0.2047,0.2061,0.2131,0.2158,0.2271,0.2287,0.2395,0.2462,0.2562,0.26,0.2643,0.2563,0.2593,0.2561,0.2503,0.2476,0.2351,0.2292,0.2504,0.2503,0.2502,0.2502,0,0.1935,0.1945,0.1955,0.1959,0.1967,0.1976,0.2004,0.2027,0.2109,0.2165,0.2249,0.2321,0.2448,0.2499,0.2571,0.2587,0.2478,0.2577,0.2538,0.2392,0.2231,0.2166,0.2473,0.2494,0.2495,0.2496,0.2496,0.2496,0.189,0.1883,0.1898,0.1889,0.1897,0.1892,0.1879,0.193,0.1974,0.2037,0.2163,0.2245,0.2387,0.2503,0.2495,0.2477,0.243,0.243,0.2409,0.2291,0.2198,0.2488,0.2502,0.2503,0.2503,0.2504,0.2504,0,0.1822,0.1825,0.1824,0.1809,0.1781,0.1811,0.1823,0.1805,0.1825,0.195,0.2022,0.218,0.2253,0.2344,0.2407,0.2336,0.2195,0.2271,0.2087,0.2043,0.2335,0.2307,0.2254,0.2254,0.2254,0.2254,0.2254,0.2254,0.1788,0.1761,0.1759,0.1692,0.1678,0.1622,0.1611,0.1612,0.1681,0.1765,0.1865,0.1974,0.2186,0.2293,0.2272,0.2215,0.204,0.1939,0.1909,0.2146,0.2158,0.217,0.2138,0.205,0.2049,0.1537,0.1534,0.1531]},{"header":{"parameterUnit":"m.s-1","parameterCategory":2,"la1":30.2991,"la2":30.254,"lo1":-89.0895,"lo2":-89.0444,"dy":0.0017,"dx":0.0017,"nx":28,"ny":28,"refTime":"2024-05-31T03:00:00:Z","depth":"0","parameterNumber":3,"parameterNumberName":"V-component_of_CURRENTS"},"data":[0,0,0,0,0,0,0,0,0,0,0,0,0,0,0,0,0,0,0,0,0,0,0,0,0,0,0,0,0,0,0,0,0,0,0,0,0,0,0,0,0,0,0,0,0,0,0,0,0,0,0,0,0,0,0,0,0,0,0.021,0.0209,0,0.0154,0.0153,0.0153,0.0116,0.0116,0.0116,0.0115,0.0042,0.004,0.0039,0,0,0,0,0,0,0,0,0,0,0,0,0,0.024,0.024,0.021,0.0209,0.0209,0.0154,0.0153,0.0153,0.0116,0.0116,0.0116,0.0115,0.0043,0.0041,0.0039,0,0,0,0,0,0,0,0,0,0,0,0,0,0.0209,0.024,0.021,0.0184,0.0181,0.0154,0.0153,0.0152,0.0116,0.0116,0.0115,0.0115,0.0043,0.0041,0.0038,0.0027,0,0,0.003,0.0029,0,0,0,0,0,0,0,0,0.0211,0.0208,0.0189,0.0186,0.0183,0.0142,0.0137,0.011,0.0116,0.014,0.0115,0.0115,0.0075,0.0069,0.0059,0.0024,0.0021,0.003,0.0028,0.0027,0.0026,0,0,0,0,0,0,0,0.0213,0.021,0.0187,0.0188,0.0184,0.016,0.0156,0.0132,0.0109,0.0138,0.0135,0.013,0.0073,0.0062,0.0057,0.002,0.003,0.0028,0.0026,0.0025,-0.0024,-0.0024,0,0,0,0,0,0,0.0224,0.0213,0.0189,0.0186,0.0197,0.016,0.0155,0.0155,0.0109,0.0102,0.0131,0.0129,0.0066,0.006,0.0054,0.0051,0.0027,0.0025,0.0023,-0.0025,-0.0024,-0.0024,0,0,0,0,0,0,0.0225,0.0223,0.0191,0.0198,0.0192,0.016,0.016,0.0154,0.0144,0.0104,0.0097,0.0127,0.0066,0.0058,0.0038,0.0048,0.0023,0.0021,-0.0025,-0.0024,-0.0024,0.0037,0,0,0,0,0,0,0.0226,0.0224,0.0227,0.0199,0.0192,0.0181,0.016,0.0153,0.0141,0.0138,0.0098,0.0091,0.0065,0.0042,0.0035,0.0043,0.0019,-0.0025,-0.0025,-0.0024,0.0035,0.004,0.0044,0,0,0,0,0,0.0228,0.0236,0.0228,0.0225,0.0198,0.0182,0.0176,0.0152,0.0142,0.0141,0.0115,0.0092,0.0041,0.004,0.0032,0.004,-0.0026,-0.0025,-0.0024,0.0033,0.0039,0.0044,0,0,0,0,0,0,0.0249,0.0233,0.0222,0.0225,0.0207,0.0176,0.0173,0.0156,0.0135,0.0134,0.0095,0.0086,0.0071,0.0047,0.0048,0.0027,0.0004,0.0003,0.005,0.0055,0.006,0.0079,0.0017,0,0,0,0,0,0.0256,0.026,0.0236,0.0238,0.0233,0.0204,0.0194,0.018,0.0157,0.0147,0.0119,0.009,0.0067,0.0056,0.003,0.002,-0.0001,0.0019,0.0023,0.0027,0.0037,0.0018,0.0022,-0.0022,-0.0022,-0.0022,0,0,0.0264,0.0256,0.0257,0.0243,0.0228,0.0228,0.0198,0.019,0.019,0.0143,0.0134,0.0104,0.0067,0.0056,0.0047,0.0037,0.0028,0.0028,0.0032,0.0039,0.0019,0.0023,0.0027,-0.0021,-0.0021,-0.0021,0,0,0.0286,0.0276,0.0288,0.0278,0.0263,0.0247,0.0249,0.0222,0.0211,0.0197,0.0166,0.0146,0.0106,0.0088,0.0072,0.0086,0.0052,0.0074,0.0114,0.0095,0.0099,0.0102,0.0081,0.0082,0.0078,0.0078,0.0078,0,0.0295,0.0307,0.0288,0.0296,0.0294,0.0261,0.0273,0.0258,0.0228,0.0224,0.0204,0.0156,0.0124,0.0115,0.0119,0.0098,0.0079,0.0097,0.0103,0.0105,0.0107,0.0085,0.0084,0.0081,0.0081,0.0081,0.008,0,0.0326,0.0334,0.0341,0.0343,0.0338,0.0342,0.0322,0.0318,0.0298,0.0279,0.0262,0.0219,0.0193,0.0177,0.0151,0.0152,0.013,0.011,0.0093,0.0116,0.009,0.0089,0.0086,0.0084,0.0084,0.0083,0,0,0.0349,0.0361,0.0363,0.0377,0.0364,0.0368,0.0372,0.0367,0.0377,0.034,0.0345,0.0301,0.0275,0.0255,0.0219,0.0203,0.0197,0.0167,0.0165,0.0154,0.0154,0.0135,0.0132,0.0176,0.0176,0.0177,0.013,0,0.0377,0.0412,0.0405,0.0436,0.0452,0.0431,0.0439,0.0431,0.0414,0.041,0.0367,0.0352,0.0305,0.0294,0.0271,0.0215,0.0196,0.0211,0.0127,0.0125,0.0112,0.0131,0.0149,0.0109,0.0128,0.0128,0.0128,0,0.0408,0.0429,0.0467,0.0492,0.0497,0.0507,0.0522,0.0527,0.0511,0.0498,0.0475,0.0432,0.0402,0.0357,0.0283,0.0293,0.0232,0.0186,0.0182,0.0146,0.0105,0.0088,0.0105,0.0017,0.0126,0.0126,0.0126,0,0.0442,0.0473,0.0508,0.0514,0.0533,0.0547,0.0558,0.0553,0.0571,0.0555,0.0559,0.0506,0.0487,0.0408,0.0303,0.0294,0.0217,0.019,0.0116,0.0114,0.0103,0.01,0.0033,0.0141,0.0141,0.0141,0.0141,0,0.0475,0.0504,0.0528,0.0547,0.0592,0.0591,0.0632,0.0633,0.0644,0.0675,0.0609,0.0618,0.0499,0.0433,0.0331,0.0223,0.0236,0.0131,0.0105,0.0124,0.0123,0.0024,-0.0048,0.0139,0.014,0.014,0.014,0,0.0504,0.0519,0.0564,0.0596,0.0609,0.0643,0.0687,0.0718,0.0718,0.0759,0.0757,0.0706,0.0627,0.0495,0.0369,0.0268,0.0099,0.0114,0.0142,0.012,-0.0027,-0.0096,-0.0205,-0.0255,0.0033,0.0033,0.0032,0,0.0522,0.0548,0.0601,0.0632,0.0648,0.0696,0.0731,0.0753,0.0794,0.0818,0.0845,0.0781,0.0756,0.0556,0.0367,0.0187,0.0082,0.0075,0.0061,-0.0025,-0.0122,-0.0163,-0.0199,0.0067,0.0067,0.0067,0.0067,0,0.0555,0.0571,0.0609,0.0673,0.0718,0.0777,0.0832,0.0876,0.0913,0.0949,0.0988,0.0971,0.0792,0.0632,0.0377,0.0239,0.0008,0.0065,-0.0028,-0.0101,-0.0146,-0.0208,0.0081,0.0065,0.0065,0.0065,0.0065,0.0065,0.0575,0.0606,0.0654,0.0713,0.0772,0.0846,0.09,0.0967,0.1042,0.1114,0.1103,0.1123,0.0891,0.0556,0.0347,0.0004,-0.0012,-0.0085,-0.0162,-0.0194,-0.024,0.0044,0.0,-0.0,-0.0,-0.0,-0.0001,0,0.0597,0.0633,0.0691,0.0764,0.0829,0.0857,0.0959,0.102,0.1115,0.1211,0.1256,0.1196,0.0882,0.0559,0.0092,-0.0158,-0.0252,-0.03,-0.0349,-0.0377,-0.0119,-0.0114,-0.0178,-0.0178,-0.0178,-0.0178,-0.0178,-0.0178,0.061,0.0661,0.0689,0.079,0.0846,0.0936,0.0996,0.1094,0.1191,0.1317,0.1381,0.1414,0.1218,0.0344,-0.0233,-0.0386,-0.054,-0.0588,-0.068,-0.0498,-0.0483,-0.0469,-0.0478,-0.0618,-0.0619,-0.0878,-0.0881,-0.0883]}],[{"header":{"parameterUnit":"m.s-1","parameterCategory":2,"la1":30.2991,"la2":30.254,"lo1":-89.0895,"lo2":-89.0444,"dy":0.0017,"dx":0.0017,"nx":28,"ny":28,"refTime":"2024-05-31T03:00:00:Z","depth":"2","parameterNumber":2,"parameterNumberName":"U-component_of_CURRENTS"},"data":[0,0,0,0,0,0,0,0,0,0,0,0,0,0,0,0,0,0,0,0,0,0,0,0,0,0,0,0,0,0,0,0,0,0,0,0,0,0,0,0,0,0,0,0,0,0,0,0,0,0,0,0,0,0,0,0,0,0,0.2001,0.2001,0,0.2012,0.2012,0.2012,0.2013,0.2013,0.2013,0.2013,0.2034,0.2034,0.2035,0,0,0,0,0,0,0,0,0,0,0,0,0,0.1968,0.1968,0.2001,0.2001,0.2001,0.2012,0.2012,0.2012,0.2013,0.2013,0.2013,0.2013,0.2033,0.2034,0.2035,0,0,0,0,0,0,0,0,0,0,0,0,0,0.198,0.1968,0.2001,0.2004,0.2004,0.2012,0.2012,0.2012,0.2013,0.2013,0.2013,0.2013,0.2033,0.2034,0.2035,0.204,0,0,0.2037,0.2038,0,0,0,0,0,0,0,0,0.1979,0.1981,0.2003,0.2004,0.2004,0.2012,0.2008,0.2023,0.2013,0.2008,0.2013,0.2013,0.2028,0.2029,0.203,0.2041,0.2042,0.2037,0.2038,0.2038,0.2039,0,0,0,0,0,0,0,0.1978,0.198,0.2004,0.2004,0.2004,0.2001,0.2002,0.2011,0.2017,0.2009,0.2009,0.2013,0.2028,0.2029,0.203,0.2043,0.2037,0.2038,0.2039,0.2039,0.2107,0.2108,0,0,0,0,0,0,0.198,0.1979,0.2004,0.2005,0.1993,0.2002,0.2003,0.2009,0.2017,0.2019,0.2013,0.2013,0.2027,0.2029,0.2031,0.2072,0.2038,0.2039,0.204,0.2106,0.2107,0.2109,0,0,0,0,0,0,0.1979,0.1982,0.2003,0.1993,0.1996,0.2002,0.2008,0.2009,0.2019,0.202,0.2022,0.2023,0.2027,0.203,0.2047,0.2071,0.2039,0.204,0.2104,0.2106,0.2108,0.2132,0,0,0,0,0,0,0.1978,0.1982,0.1989,0.1993,0.1996,0.2016,0.2008,0.2009,0.2021,0.2021,0.2029,0.2031,0.2028,0.2046,0.2048,0.2072,0.2041,0.2102,0.2105,0.2107,0.2129,0.2134,0.2139,0,0,0,0,0,0.1977,0.1985,0.1989,0.1992,0.2005,0.2017,0.2018,0.2021,0.2022,0.2029,0.2034,0.2031,0.2063,0.2047,0.2049,0.2074,0.2101,0.2104,0.2107,0.2127,0.2133,0.2138,0,0,0,0,0,0,0.1969,0.1986,0.1991,0.2002,0.2014,0.2018,0.2027,0.2029,0.2038,0.2042,0.2039,0.2041,0.2069,0.2069,0.2052,0.2103,0.2085,0.2089,0.21,0.2106,0.211,0.2101,0.2042,0,0,0,0,0,0.1973,0.1987,0.1999,0.2009,0.2018,0.2025,0.2031,0.2035,0.2043,0.2047,0.2053,0.2065,0.2082,0.2091,0.2103,0.2125,0.2125,0.2147,0.2152,0.2155,0.2151,0.2176,0.2182,0.2118,0.2118,0.2118,0,0,0.197,0.1984,0.199,0.2009,0.2019,0.203,0.2029,0.2045,0.2054,0.2049,0.2067,0.2081,0.2092,0.2119,0.2132,0.2121,0.2175,0.2159,0.2162,0.2155,0.218,0.2186,0.2191,0.212,0.212,0.2119,0,0,0.1973,0.1989,0.2002,0.2015,0.2036,0.2041,0.2049,0.2063,0.2073,0.209,0.2096,0.212,0.214,0.2154,0.2163,0.2202,0.2199,0.2216,0.2229,0.2254,0.2259,0.2264,0.2271,0.2276,0.2217,0.2217,0.2217,0,0.197,0.1987,0.2006,0.2022,0.2033,0.2048,0.2061,0.2072,0.2088,0.2104,0.2101,0.2146,0.2155,0.2191,0.2205,0.2211,0.2219,0.2204,0.2259,0.2263,0.2267,0.2274,0.2279,0.2219,0.2218,0.2218,0.2218,0,0.1979,0.1995,0.2006,0.203,0.2047,0.2061,0.2082,0.2102,0.2117,0.2128,0.2169,0.2183,0.221,0.2225,0.2223,0.2266,0.226,0.2261,0.224,0.2275,0.228,0.2285,0.2221,0.222,0.222,0.2219,0,0,0.1959,0.2003,0.2005,0.2016,0.2053,0.2061,0.2096,0.2125,0.2144,0.2171,0.2199,0.2234,0.2247,0.2259,0.2271,0.229,0.2326,0.2288,0.2289,0.2287,0.2373,0.2353,0.2356,0.2339,0.234,0.2341,0.2364,0,0.1957,0.1982,0.2009,0.2027,0.2041,0.2076,0.2099,0.2131,0.2163,0.2193,0.2227,0.2257,0.2259,0.2278,0.23,0.2325,0.234,0.2319,0.2347,0.2347,0.2319,0.2362,0.2196,0.2201,0.2368,0.2369,0.237,0,0.1951,0.1971,0.1992,0.2027,0.2036,0.2051,0.2098,0.2122,0.2179,0.2206,0.2252,0.2278,0.2323,0.2314,0.2366,0.2355,0.2363,0.2373,0.2374,0.2349,0.2337,0.2195,0.2204,0.2377,0.2377,0.2376,0.2376,0,0.1918,0.1954,0.1969,0.1981,0.2025,0.2046,0.2071,0.2127,0.2156,0.222,0.2249,0.2305,0.2335,0.2365,0.2396,0.2387,0.2442,0.2432,0.2418,0.2416,0.2274,0.2258,0.2458,0.2458,0.2458,0.2458,0.2458,0,0.1902,0.1908,0.1953,0.1959,0.1976,0.202,0.205,0.2089,0.2151,0.2183,0.2249,0.229,0.235,0.2393,0.241,0.2434,0.2458,0.2424,0.2427,0.2279,0.2264,0.2415,0.241,0.2459,0.2459,0.2459,0.2459,0,0.1861,0.1891,0.1903,0.1947,0.1962,0.1972,0.2032,0.2052,0.2119,0.2168,0.2192,0.2289,0.2356,0.2403,0.2458,0.2449,0.2475,0.2471,0.229,0.2271,0.2423,0.2419,0.2458,0.2457,0.2457,0.2457,0.2457,0,0.1841,0.1846,0.1882,0.1887,0.1907,0.1936,0.1955,0.2027,0.2055,0.2165,0.218,0.2279,0.233,0.2409,0.2427,0.2453,0.2484,0.2296,0.2251,0.2428,0.2426,0.2422,0.2419,0.2067,0.2063,0.206,0.2058,0,0.1801,0.1814,0.1826,0.1839,0.1855,0.1869,0.1905,0.1925,0.2009,0.2059,0.2132,0.219,0.2287,0.2261,0.2309,0.2299,0.2283,0.2243,0.2476,0.2105,0.2064,0.2061,0.2069,0.2033,0.2036,0.2038,0.2039,0.204,0.1764,0.1759,0.1777,0.1777,0.1792,0.179,0.1779,0.1829,0.1867,0.1917,0.2028,0.2057,0.211,0.2119,0.207,0.2041,0.2197,0.2096,0.2101,0.2111,0.2074,0.2036,0.1992,0.1994,0.1996,0.1998,0.1999,0,0.1706,0.1709,0.1712,0.1705,0.1682,0.1718,0.1729,0.1705,0.1717,0.1807,0.1858,0.1758,0.1768,0.1814,0.1746,0.1761,0.1711,0.1682,0.1599,0.1627,0.1652,0.1587,0.1378,0.1376,0.1373,0.1371,0,0,0.1677,0.1653,0.1649,0.1592,0.1587,0.1538,0.1526,0.1515,0.1555,0.1551,0.1567,0.1712,0.1794,0.1566,0.155,0.1452,0.1519,0.1396,0.1906,0.184,0.1861,0.1917,0.1855,0,0,0,0,0]},{"header":{"parameterUnit":"m.s-1","parameterCategory":2,"la1":30.2991,"la2":30.254,"lo1":-89.0895,"lo2":-89.0444,"dy":0.0017,"dx":0.0017,"nx":28,"ny":28,"refTime":"2024-05-31T03:00:00:Z","depth":"2","parameterNumber":3,"parameterNumberName":"V-component_of_CURRENTS"},"data":[0,0,0,0,0,0,0,0,0,0,0,0,0,0,0,0,0,0,0,0,0,0,0,0,0,0,0,0,0,0,0,0,0,0,0,0,0,0,0,0,0,0,0,0,0,0,0,0,0,0,0,0,0,0,0,0,0,0,0.0054,0.0053,0,0.0008,0.0008,0.0007,-0.0023,-0.0023,-0.0023,-0.0023,-0.0092,-0.0094,-0.0095,0,0,0,0,0,0,0,0,0,0,0,0,0,0.009,0.0089,0.0054,0.0053,0.0053,0.0009,0.0008,0.0007,-0.0023,-0.0023,-0.0023,-0.0023,-0.0091,-0.0093,-0.0095,0,0,0,0,0,0,0,0,0,0,0,0,0,0.0062,0.0089,0.0054,0.0033,0.0031,0.0009,0.0008,0.0007,-0.0023,-0.0023,-0.0023,-0.0023,-0.0091,-0.0093,-0.0096,-0.0107,0,0,-0.0103,-0.0104,0,0,0,0,0,0,0,0,0.0063,0.006,0.0036,0.0034,0.0032,-0.0001,-0.0005,-0.0032,-0.0023,-0.0003,-0.0023,-0.0024,-0.0063,-0.0068,-0.0077,-0.011,-0.0113,-0.0104,-0.0105,-0.0106,-0.0107,0,0,0,0,0,0,0,0.0065,0.0062,0.0035,0.0036,0.0033,0.0017,0.0013,-0.001,-0.0032,-0.0005,-0.0007,-0.0011,-0.0065,-0.0074,-0.0078,-0.0114,-0.0104,-0.0106,-0.0107,-0.0108,-0.0155,-0.0154,0,0,0,0,0,0,0.0074,0.0064,0.0037,0.0034,0.0048,0.0017,0.0012,0.0009,-0.0032,-0.0038,-0.0011,-0.0012,-0.007,-0.0075,-0.0081,-0.0083,-0.0106,-0.0109,-0.011,-0.0155,-0.0154,-0.0154,0,0,0,0,0,0,0.0075,0.0072,0.0039,0.0048,0.0043,0.0017,0.0013,0.0008,0.0001,-0.0036,-0.0042,-0.0013,-0.007,-0.0077,-0.0095,-0.0086,-0.011,-0.0112,-0.0155,-0.0155,-0.0154,-0.0096,0,0,0,0,0,0,0.0076,0.0072,0.0075,0.0049,0.0043,0.0032,0.0013,0.0008,-0.0001,-0.0003,-0.0039,-0.0046,-0.0071,-0.0091,-0.0098,-0.009,-0.0114,-0.0156,-0.0155,-0.0154,-0.0098,-0.0093,-0.0089,0,0,0,0,0,0.0077,0.0083,0.0075,0.0072,0.0046,0.0032,0.0028,0.0008,-0.0001,-0.0,-0.0024,-0.0045,-0.0093,-0.0093,-0.0101,-0.0094,-0.0156,-0.0155,-0.0155,-0.01,-0.0094,-0.0089,0,0,0,0,0,0,0.01,0.008,0.0071,0.007,0.0055,0.0028,0.0027,0.0013,-0.0006,-0.0006,-0.0042,-0.005,-0.0063,-0.0087,-0.0086,-0.0106,-0.0128,-0.0129,-0.0084,-0.0079,-0.0074,-0.0058,-0.0116,0,0,0,0,0,0.0106,0.0106,0.0083,0.0083,0.0079,0.0054,0.0047,0.0034,0.0014,0.0006,-0.002,-0.0046,-0.0067,-0.0079,-0.0102,-0.0112,-0.0134,-0.0113,-0.0109,-0.0105,-0.0098,-0.012,-0.0116,-0.0152,-0.0152,-0.0152,0,0,0.0115,0.0105,0.0104,0.0088,0.0076,0.0076,0.0049,0.0044,0.0045,0.0001,-0.0004,-0.0032,-0.0067,-0.0077,-0.0085,-0.0095,-0.0107,-0.0104,-0.01,-0.0095,-0.0119,-0.0115,-0.0112,-0.0152,-0.0152,-0.0152,0,0,0.0136,0.0124,0.0133,0.0124,0.011,0.0096,0.0098,0.0075,0.0066,0.0055,0.0026,0.0007,-0.0028,-0.0047,-0.0063,-0.0049,-0.0083,-0.006,-0.0024,-0.0045,-0.0042,-0.004,-0.0062,-0.0062,-0.0056,-0.0056,-0.0056,0,0.0148,0.0153,0.0133,0.0139,0.0138,0.0109,0.012,0.0107,0.0082,0.0078,0.0061,0.0018,-0.0012,-0.0023,-0.0019,-0.0038,-0.0058,-0.0039,-0.0038,-0.0037,-0.0035,-0.0059,-0.006,-0.0053,-0.0054,-0.0054,-0.0054,0,0.0174,0.0179,0.0184,0.0184,0.0181,0.0184,0.0166,0.0164,0.0148,0.013,0.0115,0.0075,0.005,0.0036,0.0012,0.0009,-0.0011,-0.003,-0.0048,-0.0028,-0.0055,-0.0056,-0.0049,-0.005,-0.0051,-0.0052,0,0,0.0196,0.0202,0.0204,0.0217,0.0205,0.0209,0.0214,0.0209,0.0217,0.0186,0.019,0.0149,0.0125,0.0106,0.0072,0.0053,0.0043,0.0021,0.0018,0.0005,-0.0004,-0.0015,-0.0019,0.0024,0.0024,0.0024,-0.0027,0,0.0222,0.025,0.0242,0.0272,0.0286,0.0268,0.0276,0.0269,0.0254,0.025,0.0208,0.0194,0.0152,0.0143,0.0118,0.0063,0.0041,0.0059,-0.0028,-0.003,-0.0037,-0.002,-0.0003,-0.0047,-0.0029,-0.0029,-0.0029,0,0.0249,0.0267,0.0299,0.0323,0.0328,0.0339,0.0353,0.0359,0.0342,0.033,0.0307,0.0268,0.0237,0.0197,0.0119,0.0133,0.0072,0.0026,0.0022,-0.0008,-0.0044,-0.0066,-0.0051,-0.0033,-0.0033,-0.0033,-0.0032,0,0.0282,0.0308,0.0339,0.0345,0.0362,0.0377,0.0389,0.0383,0.0399,0.0383,0.0387,0.0334,0.0316,0.0236,0.0139,0.0129,0.005,0.0021,-0.0046,-0.0048,-0.0061,-0.0063,-0.0033,-0.0033,-0.0033,-0.0032,-0.0032,0,0.0311,0.0338,0.0359,0.0377,0.042,0.0419,0.0458,0.046,0.0469,0.0497,0.0435,0.044,0.0325,0.0262,0.0163,0.0059,0.0067,-0.0033,-0.0058,-0.004,-0.004,-0.0051,-0.0053,-0.0034,-0.0034,-0.0033,-0.0033,0,0.0339,0.035,0.0392,0.0421,0.0436,0.0469,0.0512,0.054,0.0541,0.0577,0.0576,0.0524,0.0446,0.0322,0.0195,0.0101,-0.0006,-0.0048,-0.0019,-0.0039,-0.0099,-0.0097,-0.0127,-0.0128,-0.0129,-0.0129,-0.013,0,0.0355,0.0378,0.0427,0.0457,0.0473,0.052,0.0554,0.0575,0.0611,0.0632,0.0656,0.0593,0.0561,0.0369,0.0193,0.0023,-0.0005,-0.0081,-0.0099,-0.0085,-0.0107,-0.0104,-0.0101,-0.0097,-0.0097,-0.0097,-0.0097,0,0.0384,0.0399,0.0434,0.0495,0.0539,0.0595,0.0649,0.0688,0.0722,0.0753,0.0784,0.0762,0.059,0.0428,0.0192,0.007,-0.0053,-0.0089,-0.008,-0.0072,-0.006,-0.008,-0.0077,-0.0098,-0.0098,-0.0098,-0.0098,-0.0098,0.0404,0.0431,0.0474,0.0533,0.0589,0.066,0.071,0.077,0.0838,0.0896,0.088,0.0866,0.0677,0.0389,0.0173,-0.0057,-0.0049,-0.0133,-0.0132,-0.013,-0.0114,-0.0103,-0.0147,-0.0147,-0.0147,-0.0147,-0.0147,0,0.0426,0.0457,0.051,0.0579,0.0641,0.0672,0.0766,0.0819,0.0901,0.0969,0.1,0.0834,0.0654,0.0432,0.01,-0.0102,-0.0124,-0.0174,-0.0151,-0.0148,-0.0147,-0.013,-0.0168,-0.0169,-0.017,-0.017,0,0,0.0438,0.0483,0.0506,0.0602,0.0658,0.0746,0.0803,0.0884,0.0955,0.1015,0.1028,0.1018,0.075,0.051,0.0229,0.0036,-0.0013,-0.0012,0.0027,0.009,0.0094,-0.0102,-0.0071,0,0,0,0,0]}],[{"header":{"parameterUnit":"m.s-1","parameterCategory":2,"la1":30.2991,"la2":30.254,"lo1":-89.0895,"lo2":-89.0444,"dy":0.0017,"dx":0.0017,"nx":28,"ny":28,"refTime":"2024-05-31T03:00:00:Z","depth":"4","parameterNumber":2,"parameterNumberName":"U-component_of_CURRENTS"},"data":[0,0,0,0,0,0,0,0,0,0,0,0,0,0,0,0,0,0,0,0,0,0,0,0,0,0,0,0,0,0,0,0,0,0,0,0,0,0,0,0,0,0,0,0,0,0,0,0,0,0,0,0,0,0,0,0,0,0,0.1186,0.1187,0,0.1253,0.1253,0.1254,0.1307,0.1307,0.1308,0.1309,0.135,0.135,0.1351,0,0,0,0,0,0,0,0,0,0,0,0,0,0.1153,0.1153,0.1186,0.1187,0.1188,0.1253,0.1253,0.1254,0.1306,0.1307,0.1308,0.1309,0.135,0.135,0.1351,0,0,0,0,0,0,0,0,0,0,0,0,0,0.1186,0.1153,0.1186,0.1223,0.1227,0.1253,0.1253,0.1254,0.1306,0.1307,0.1308,0.1309,0.135,0.135,0.1351,0.1335,0,0,0.1353,0.1354,0,0,0,0,0,0,0,0,0.1184,0.1187,0.1217,0.1221,0.1225,0.1274,0.1257,0.1281,0.1306,0.1274,0.1309,0.131,0.1323,0.1326,0.1334,0.1337,0.1339,0.1353,0.1354,0.1354,0.1354,0,0,0,0,0,0,0,0.1182,0.1185,0.1211,0.1218,0.1223,0.1254,0.1259,0.1262,0.129,0.1277,0.1282,0.1292,0.1325,0.1333,0.1335,0.1339,0.1353,0.1354,0.1354,0.1355,0.1419,0.1421,0,0,0,0,0,0,0.1173,0.1182,0.1209,0.1213,0.1209,0.1253,0.1259,0.1256,0.1291,0.1298,0.1291,0.1294,0.1331,0.1334,0.1337,0.14,0.1354,0.1355,0.1355,0.1418,0.142,0.1421,0,0,0,0,0,0,0.1172,0.1174,0.1206,0.1202,0.1208,0.1252,0.1249,0.1257,0.1296,0.1302,0.1308,0.1325,0.1332,0.1336,0.1372,0.1399,0.1355,0.1356,0.1416,0.1418,0.142,0.1474,0,0,0,0,0,0,0.1171,0.1173,0.1183,0.12,0.1208,0.1241,0.1248,0.1257,0.1299,0.1305,0.1332,0.1336,0.1333,0.1371,0.1373,0.1399,0.1356,0.1415,0.1417,0.142,0.1471,0.1478,0.1484,0,0,0,0,0,0.1169,0.1174,0.1182,0.1187,0.1214,0.1242,0.1249,0.1283,0.13,0.1321,0.1345,0.1337,0.1387,0.1373,0.1374,0.1401,0.1414,0.1417,0.1419,0.1468,0.1476,0.1483,0,0,0,0,0,0,0.1173,0.118,0.119,0.12,0.1229,0.1252,0.1278,0.1298,0.1334,0.1348,0.1352,0.1357,0.1399,0.1392,0.1376,0.1427,0.1399,0.1402,0.1435,0.1443,0.145,0.1451,0.1357,0,0,0,0,0,0.1174,0.1178,0.1197,0.1211,0.1225,0.1257,0.1278,0.1302,0.1329,0.1348,0.1368,0.1388,0.1406,0.142,0.1433,0.1458,0.1456,0.1477,0.1484,0.1489,0.1492,0.1516,0.1524,0.1431,0.143,0.143,0,0,0.1183,0.1188,0.1193,0.1213,0.1238,0.1261,0.1273,0.1314,0.1343,0.1344,0.1397,0.1413,0.1419,0.1453,0.1471,0.1455,0.1516,0.1493,0.1498,0.1498,0.152,0.1529,0.1537,0.1432,0.1432,0.1432,0,0,0.1194,0.1205,0.1212,0.1234,0.1272,0.1289,0.1306,0.1345,0.1376,0.142,0.1431,0.1467,0.1494,0.1506,0.1512,0.156,0.155,0.1568,0.1602,0.1625,0.1633,0.164,0.1652,0.1659,0.1571,0.1571,0.1571,0,0.1211,0.1212,0.1224,0.124,0.1266,0.1302,0.1328,0.1358,0.1409,0.1437,0.1447,0.1509,0.1517,0.1553,0.1576,0.1575,0.1584,0.1571,0.1633,0.164,0.1646,0.1656,0.1664,0.1574,0.1573,0.1573,0.1573,0,0.1217,0.1235,0.1247,0.127,0.13,0.1333,0.137,0.1413,0.1454,0.1482,0.1545,0.1565,0.1602,0.1612,0.1611,0.166,0.1653,0.1639,0.1612,0.1659,0.1667,0.1674,0.1578,0.1577,0.1576,0.1575,0,0,0.1213,0.1243,0.1252,0.127,0.1322,0.1344,0.1399,0.1452,0.1493,0.1547,0.1598,0.1642,0.1665,0.1674,0.1683,0.1705,0.1759,0.1698,0.1698,0.1708,0.1812,0.1707,0.1704,0.1762,0.1764,0.1765,0.1801,0,0.1222,0.1245,0.1265,0.131,0.1329,0.1382,0.1425,0.1482,0.1536,0.1593,0.1631,0.1681,0.1684,0.1714,0.174,0.1757,0.1779,0.175,0.1767,0.1767,0.1667,0.1709,0.1769,0.1806,0.1808,0.1809,0.181,0,0.1217,0.1235,0.1272,0.1324,0.1341,0.138,0.1463,0.1508,0.1589,0.1632,0.1695,0.1727,0.1784,0.1772,0.183,0.1816,0.1823,0.1826,0.1828,0.1714,0.1675,0.175,0.1822,0.1821,0.182,0.1819,0.1818,0,0.119,0.124,0.1269,0.1289,0.1353,0.1397,0.1446,0.1529,0.1575,0.1668,0.171,0.1777,0.1819,0.1849,0.1874,0.1864,0.192,0.1899,0.1808,0.18,0.1859,0.1852,0.1932,0.1932,0.1932,0.1931,0.1931,0,0.1173,0.1202,0.1264,0.1279,0.1331,0.1389,0.1459,0.1519,0.1605,0.1653,0.1732,0.1774,0.1844,0.1885,0.1895,0.1874,0.1941,0.1819,0.1805,0.1881,0.1876,0.1864,0.1856,0.1933,0.1932,0.1932,0.1932,0,0.1133,0.1173,0.121,0.1286,0.1318,0.1358,0.146,0.15,0.1594,0.1662,0.1695,0.1792,0.1845,0.1892,0.1938,0.1886,0.1883,0.1856,0.1942,0.1932,0.1742,0.1737,0.1754,0.175,0.1748,0.1745,0.1743,0,0.1109,0.1123,0.1204,0.1231,0.1273,0.1343,0.1386,0.1488,0.153,0.1656,0.1673,0.1767,0.1818,0.1792,0.1856,0.1863,0.184,0.1818,0.1772,0.1741,0.1726,0.1725,0.1723,0.1739,0.1738,0.1737,0.1737,0,0.1064,0.1103,0.1132,0.1186,0.1238,0.1281,0.1355,0.1373,0.1482,0.1579,0.1611,0.164,0.1691,0.1725,0.1742,0.1745,0.1822,0.1788,0.1793,0.1749,0.1723,0.171,0.1712,0.1727,0.1728,0.1729,0.173,0,0.1037,0.1043,0.1088,0.1126,0.1184,0.12,0.1247,0.1289,0.134,0.1473,0.1484,0.158,0.1674,0.1665,0.1687,0.1679,0.1651,0.1583,0.1598,0.161,0.1547,0.149,0.1415,0,0,0,0,0,0.1001,0.0996,0.1024,0.1054,0.1104,0.1139,0.1214,0.126,0.1364,0.1346,0.141,0.1452,0.1484,0.154,0.1504,0.1633,0.1662,0.1584,0.1593,0.1672,0.1683,0.1623,0,0,0,0,0,0,0.0976,0.0997,0.0995,0.0984,0.0993,0.1037,0.1078,0.1148,0.1143,0.1254,0.128,0.1366,0.1422,0.1491,0.1478,0.1494,0.1468,0.165,0.1646,0.1666,0.1676,0.1685,0.1627,0,0,0,0,0]},{"header":{"parameterUnit":"m.s-1","parameterCategory":2,"la1":30.2991,"la2":30.254,"lo1":-89.0895,"lo2":-89.0444,"dy":0.0017,"dx":0.0017,"nx":28,"ny":28,"refTime":"2024-05-31T03:00:00:Z","depth":"4","parameterNumber":3,"parameterNumberName":"V-component_of_CURRENTS"},"data":[0,0,0,0,0,0,0,0,0,0,0,0,0,0,0,0,0,0,0,0,0,0,0,0,0,0,0,0,0,0,0,0,0,0,0,0,0,0,0,0,0,0,0,0,0,0,0,0,0,0,0,0,0,0,0,0,0,0,0.0024,0.0023,0,-0.0007,-0.0008,-0.0008,-0.0032,-0.0032,-0.0032,-0.0033,-0.0085,-0.0086,-0.0088,0,0,0,0,0,0,0,0,0,0,0,0,0,0.0049,0.0049,0.0024,0.0023,0.0023,-0.0007,-0.0008,-0.0008,-0.0032,-0.0032,-0.0032,-0.0033,-0.0085,-0.0086,-0.0088,0,0,0,0,0,0,0,0,0,0,0,0,0,0.003,0.0049,0.0024,0.0008,0.0006,-0.0007,-0.0008,-0.0008,-0.0032,-0.0032,-0.0033,-0.0033,-0.0084,-0.0086,-0.0088,-0.0093,0,0,-0.0093,-0.0094,0,0,0,0,0,0,0,0,0.0031,0.0029,0.001,0.0009,0.0007,-0.0016,-0.0018,-0.0038,-0.0032,-0.0018,-0.0033,-0.0033,-0.0064,-0.0067,-0.0072,-0.0096,-0.0098,-0.0094,-0.0095,-0.0095,-0.0096,0,0,0,0,0,0,0,0.0032,0.003,0.0011,0.001,0.0008,-0.0003,-0.0006,-0.0022,-0.0039,-0.0019,-0.0021,-0.0024,-0.0065,-0.0071,-0.0074,-0.0099,-0.0094,-0.0095,-0.0096,-0.0097,-0.0133,-0.0132,0,0,0,0,0,0,0.0038,0.0031,0.0012,0.001,0.0019,-0.0003,-0.0006,-0.0009,-0.0039,-0.0043,-0.0023,-0.0025,-0.0067,-0.0072,-0.0076,-0.0081,-0.0095,-0.0097,-0.0098,-0.0133,-0.0132,-0.0132,0,0,0,0,0,0,0.0038,0.0036,0.0013,0.002,0.0017,-0.0003,-0.0005,-0.0009,-0.0015,-0.0042,-0.0047,-0.0026,-0.0068,-0.0073,-0.0087,-0.0083,-0.0098,-0.01,-0.0133,-0.0133,-0.0132,-0.0093,0,0,0,0,0,0,0.0039,0.0037,0.0038,0.0021,0.0016,0.0009,-0.0005,-0.0009,-0.0017,-0.0019,-0.0046,-0.0051,-0.0068,-0.0084,-0.0089,-0.0086,-0.0101,-0.0133,-0.0133,-0.0132,-0.0095,-0.0092,-0.0089,0,0,0,0,0,0.004,0.0044,0.0038,0.0036,0.0018,0.0009,0.0006,-0.0009,-0.0016,-0.0016,-0.0034,-0.005,-0.0086,-0.0086,-0.0091,-0.0089,-0.0133,-0.0133,-0.0132,-0.0096,-0.0092,-0.0089,0,0,0,0,0,0,0.0055,0.0041,0.0035,0.0034,0.0024,0.0005,0.0005,-0.0006,-0.002,-0.0022,-0.0048,-0.0054,-0.0065,-0.0082,-0.0081,-0.0098,-0.0113,-0.0113,-0.0083,-0.008,-0.0077,-0.0065,-0.0103,0,0,0,0,0,0.006,0.0059,0.0043,0.0044,0.004,0.0023,0.0018,0.0008,-0.0007,-0.0013,-0.0032,-0.0052,-0.0068,-0.0077,-0.0094,-0.0103,-0.0122,-0.0106,-0.0103,-0.01,-0.0095,-0.012,-0.0119,-0.0131,-0.0131,-0.0131,0,0,0.0066,0.0058,0.0058,0.0047,0.0039,0.0039,0.0019,0.0014,0.0015,-0.0017,-0.0022,-0.0042,-0.0068,-0.0077,-0.0084,-0.0091,-0.0107,-0.01,-0.0098,-0.0093,-0.0119,-0.0118,-0.0117,-0.0131,-0.0131,-0.0131,0,0,0.008,0.0072,0.0076,0.0071,0.0061,0.0052,0.0052,0.0036,0.0028,0.0021,-0.0001,-0.0018,-0.0042,-0.0059,-0.0071,-0.0064,-0.009,-0.007,-0.0047,-0.0072,-0.0071,-0.007,-0.0091,-0.0092,-0.0069,-0.0069,-0.0069,0,0.0088,0.0091,0.0077,0.0081,0.008,0.0061,0.0068,0.0059,0.004,0.0036,0.0025,-0.001,-0.0033,-0.0045,-0.0043,-0.0057,-0.0074,-0.0057,-0.0067,-0.0067,-0.0067,-0.0089,-0.0091,-0.0067,-0.0068,-0.0068,-0.0068,0,0.0104,0.0108,0.0111,0.0111,0.011,0.0112,0.01,0.0098,0.0086,0.0073,0.0059,0.0027,0.0007,-0.0005,-0.0022,-0.0032,-0.0045,-0.006,-0.0074,-0.0064,-0.0087,-0.009,-0.0065,-0.0065,-0.0066,-0.0066,0,0,0.0117,0.0121,0.0123,0.0132,0.0126,0.0129,0.0133,0.0129,0.0133,0.011,0.011,0.0077,0.0058,0.0043,0.0016,-0.0006,-0.0024,-0.0029,-0.0031,-0.0046,-0.0074,-0.0068,-0.0071,-0.004,-0.0041,-0.0041,-0.009,0,0.0133,0.0152,0.0148,0.017,0.0178,0.0169,0.0176,0.017,0.0158,0.0154,0.0119,0.0108,0.0076,0.0068,0.0041,-0.0005,-0.003,-0.0009,-0.0085,-0.0088,-0.008,-0.0073,-0.0042,-0.0092,-0.0093,-0.0094,-0.0094,0,0.0149,0.0161,0.0183,0.0203,0.0207,0.0218,0.0229,0.0234,0.022,0.021,0.019,0.016,0.013,0.01,0.0027,0.0042,-0.0011,-0.0051,-0.0054,-0.0062,-0.0086,-0.0106,-0.01,-0.0099,-0.0099,-0.0099,-0.0098,0,0.0166,0.0187,0.0209,0.0214,0.023,0.0243,0.0255,0.0251,0.0264,0.0249,0.0252,0.0203,0.0188,0.0117,0.0038,0.003,-0.0044,-0.0068,-0.0114,-0.0115,-0.0124,-0.0124,-0.0124,-0.0124,-0.0124,-0.0123,-0.0123,0,0.0182,0.0202,0.0222,0.0234,0.0268,0.0272,0.0302,0.0306,0.0314,0.0334,0.0287,0.0287,0.0192,0.0138,0.0054,-0.003,-0.0033,-0.0106,-0.0125,-0.0106,-0.0104,-0.0126,-0.0126,-0.0125,-0.0125,-0.0124,-0.0124,0,0.0195,0.0206,0.0236,0.0263,0.0277,0.0303,0.0344,0.0364,0.0369,0.0395,0.0396,0.0352,0.0283,0.0184,0.0071,0.0001,-0.0088,-0.0121,-0.0084,-0.0101,-0.015,-0.0147,-0.018,-0.018,-0.018,-0.0181,-0.0181,0,0.0202,0.0218,0.0259,0.0284,0.0299,0.0339,0.0368,0.0391,0.0417,0.0435,0.0451,0.0399,0.0354,0.0211,0.0095,-0.0058,-0.0086,-0.0136,-0.0154,-0.014,-0.0155,-0.0152,-0.0149,-0.0181,-0.0181,-0.0181,-0.0181,0,0.0214,0.0228,0.0254,0.0303,0.0342,0.0388,0.0434,0.0459,0.0491,0.0496,0.0502,0.0428,0.0351,0.0224,0.011,-0.0005,-0.0105,-0.0138,-0.0139,-0.0157,-0.0141,-0.0156,-0.0153,-0.0181,-0.0181,-0.0181,-0.0181,0,0.0223,0.024,0.0273,0.0319,0.0371,0.0424,0.0448,0.0486,0.0515,0.0539,0.054,0.0457,0.0411,0.0252,0.0146,0.0038,-0.0003,-0.005,-0.0057,-0.0058,-0.0012,0.0027,0.0027,0,0,0,0,0,0.023,0.0249,0.0287,0.0338,0.0391,0.0425,0.0486,0.0506,0.0538,0.0553,0.0551,0.0482,0.0337,0.0272,0.0165,0.0119,-0.0037,-0.0013,-0.0099,-0.0183,-0.0183,-0.0149,0,0,0,0,0,0,0.0234,0.0266,0.0282,0.0346,0.0385,0.0447,0.0489,0.0514,0.0523,0.0541,0.0469,0.0445,0.0301,0.0399,0.016,0.0127,0.0055,-0.0078,-0.0081,-0.0184,-0.0183,-0.0183,-0.0148,0,0,0,0,0]}]]